This is the latest recevied weather packets stored in our database for station/object KJ5SC. If no packets are shown the sender has not sent any weather packets the latest 10 day(s).
| Time | Temp. | Humidity | Pressure | Rain* | Wind** | Luminosity | Snow |
|---|---|---|---|---|---|---|---|
| 1787614722 | 35.56° C | 41% | 1016.1 hPa | 0 mm | - | 43 W/m² | - |
| 1787614419 | 36.11° C | 41% | 1016.1 hPa | 0 mm | - | 28 W/m² | - |
| 1787614116 | 36.11° C | 40% | 1016.1 hPa | 0 mm | - | 28 W/m² | - |
| 1787613811 | 36.11° C | 39% | 1016.1 hPa | 0 mm | - | 29 W/m² | - |
| 1787613506 | 36.67° C | 38% | 1016.1 hPa | 0 mm | - | 28 W/m² | - |
| 1787613202 | 36.67° C | 37% | 1016 hPa | 0 mm | - | 29 W/m² | - |
| 1787612898 | 37.22° C | 34% | 1016.1 hPa | 0 mm | - | 32 W/m² | - |
| 1787612594 | 37.22° C | 33% | 1016 hPa | 0 mm | - | 36 W/m² | - |
| 1787612290 | 37.22° C | 34% | 1016 hPa | 0 mm | - | 40 W/m² | - |
| 1787611986 | 37.22° C | 34% | 1016 hPa | 0 mm | - | 55 W/m² | - |
| 1787611682 | 37.22° C | 37% | 1016 hPa | 0 mm | - | 50 W/m² | - |
| 1787611379 | 37.78° C | 36% | 1016.1 hPa | 0 mm | - | 67 W/m² | - |
| 1787611079 | 37.22° C | 36% | 1016 hPa | 0 mm | - | 111 W/m² | - |
| 1787610775 | 37.22° C | 37% | 1016 hPa | 0 mm | - | 63 W/m² | - |
| 1787610470 | 37.22° C | 37% | 1016 hPa | 0 mm | - | 77 W/m² | - |
| 1787610169 | 37.78° C | 35% | 1016.1 hPa | 0 mm | - | 60 W/m² | - |
| 1787609869 | 37.78° C | 36% | 1016.1 hPa | 0 mm | - | 58 W/m² | - |
| 1787609563 | 37.78° C | 36% | 1016.1 hPa | 0 mm | - | 56 W/m² | - |
| 1787609263 | 37.78° C | 36% | 1016.2 hPa | 0 mm | - | 60 W/m² | - |
| 1787608963 | 37.78° C | 35% | 1016.2 hPa | 0 mm | - | 63 W/m² | - |
| 1787608658 | 38.33° C | 34% | 1016.2 hPa | 0 mm | - | 61 W/m² | - |
| 1787608352 | 38.33° C | 33% | 1016.2 hPa | 0 mm | - | 71 W/m² | - |
| 1787608050 | 37.78° C | 33% | 1016.2 hPa | 0 mm | - | 112 W/m² | - |
| 1787607746 | 37.78° C | 32% | 1016.2 hPa | 0 mm | - | 61 W/m² | - |
| 1787607443 | 37.78° C | 32% | 1016.2 hPa | 0 mm | - | 60 W/m² | - |
* Rain latest hour (hover to see other rain measurements)
** Current wind speed in m/s (hover to see current wind gust speed)